Location: ????
(30.2663°N, 31.2484°E)
Time: 13:14:26
(UTC+00:00)

CZ-2C R/B - Pass Details

Date: 25 March 2023
Orbit: 784 x 870 km, 98.3° (Epoch: 28 May)

Event Time Altitude Azimuth Distance (km) Brightness Sun altitude
Exits shadow 00:54:45 33° 63° (ENE) 1,431 4.2 -37.8°
Drops below altitude 10° 00:59:17 10° 9° (N) 2,508 5.5 -37.0°
Sets 01:01:51 0° 0° (N) 3,440 6.2 -36.5°
